Location: Unspecified
(50.9333°N, 0.0000°E)
Time: 19:50:25
(UTC+00:00)

PACE - Visible Passes

Search period start: 04 April 2026 00:00
Search period end: 14 April 2026 00:00
Orbit: 673 x 678 km, 98.1° (Epoch: 28 March)

Date Brightness Start Highest point End Pass type
(mag) Time Alt. Az. Time Alt. Az. Time Alt. Az.
4 Apr ? 00:03:21 10° NE 00:04:11 12° ENE 00:04:11 12° ENE visible
4 Apr ? 01:39:10 10° NNE 01:42:30 47° N 01:42:30 47° N visible
4 Apr ? 03:18:00 10° NNW 03:20:17 14° NW 03:20:50 13° WNW visible
5 Apr ? 00:36:43 10° NNE 00:39:04 23° ENE 00:39:04 23° ENE visible
5 Apr ? 02:13:46 10° N 02:17:23 37° NW 02:17:23 37° NW visible
6 Apr ? 01:10:45 10° NNE 01:13:57 41° NE 01:13:57 41° NE visible
6 Apr ? 02:48:40 10° N 02:52:11 22° WNW 02:52:16 22° WNW visible
7 Apr ? 00:09:00 10° NE 00:10:30 15° ENE 00:10:30 15° ENE visible
7 Apr ? 01:45:07 10° N 01:48:50 54° NNW 01:48:50 54° NNW visible
7 Apr ? 03:24:15 10° NNW 03:26:08 12° NW 03:27:09 12° WNW visible
8 Apr ? 00:42:33 10° NNE 00:45:23 28° ENE 00:45:23 28° ENE visible
8 Apr ? 02:19:45 10° N 02:23:42 35° WNW 02:23:42 35° WNW visible
9 Apr ? 01:16:39 10° NNE 01:20:16 51° NE 01:20:16 51° NE visible
9 Apr ? 02:54:43 10° NNW 02:58:02 20° WNW 02:58:35 19° WNW visible
10 Apr ? 00:14:43 10° NE 00:16:49 17° ENE 00:16:49 17° ENE visible
10 Apr ? 01:51:03 10° N 01:55:08 57° NW 01:55:08 57° NW visible
10 Apr ? 03:30:38 10° NW 03:31:57 11° NW 03:33:17 10° WNW visible
11 Apr ? 00:48:23 10° NNE 00:51:41 33° ENE 00:51:41 33° ENE visible
11 Apr ? 02:25:45 10° N 02:29:51 32° WNW 02:30:01 32° WNW visible
11 Apr ? 23:48:14 10° ENE 23:48:14 10° ENE 23:48:14 10° ENE visible
12 Apr ? 01:22:33 10° NNE 01:26:33 63° NE 01:26:33 63° NE visible
12 Apr ? 03:00:47 10° NNW 03:03:53 18° WNW 03:04:53 17° WNW visible
13 Apr ? 00:20:27 10° NE 00:23:06 20° ENE 00:23:06 20° ENE visible
13 Apr ? 01:57:00 10° N 02:01:26 55° WNW 02:01:26 55° WNW visible
